Wind_Speed
4 3 3 2 2 3 2 3 2 2 5 7 10 12 12 11 12 15 15 13 11 7 5 3 3 5 3 5 13 12 13 12 11 11 10 11 6 5 5 7 9 9 13 17 21
4 3 2 2 2 2 2 2 2 2 3 5 7 11 12 12 12 13 16 15 12 8 5 3 2 5 2 8 10 7 14 13 17 9 11 12 7 7 8 6 6 13 12 17 19
4 3 2 2 2 2 2 2 2 2 2 4 6 8 12 12 12 13 14 17 14 11 6 5 3 5 3 7 9 9 16 14 17 13 10 12 7 6 8 3 7 10 9 16 18
6 4 3 2 2 2 1 1 1 2 3 3 5 8 11 13 6 14 14 16 16 12 8 7 5 4 4 3 9 10 18 16 16 11 11 12 8 8 4 7 12 10 11 18 19
7 6 5 3 3 2 2 2 2 2 2 3 3 7 10 14 14 11 15 15 17 14 10 11 7 5 5 6 6 8 12 16 15 10 10 9 11 9 6 11 10 11 15 16 19
8 6 4 4 4 4 4 3 2 2 2 2 2 5 10 10 13 7 14 15 18 16 13 16 10 8 7 6 6 8 12 11 12 16 14 8 14 12 9 10 11 12 12 14 17
8 6 5 5 4 4 5 5 4 3 2 1 2 5 11 12 10 7 12 15 18 18 17 17 14 9 6 5 6 8 10 8 10 16 21 17 15 16 9 8 12 12 14 15 16
8 6 5 5 3 5 6 6 4 3 3 3 3 6 9 10 10 8 10 13 15 17 18 20 15 9 6 7 7 4 7 7 6 10 13 16 15 21 15 13 14 14 17 16 17
7 6 5 4 4 5 5 6 5 6 8 10 10 8 7 8 10 10 10 12 13 14 15 20 17 10 9 6 4 2 3 4 3 4 4 19 13 22 20 21 16 17 18 15 14
6 5 4 4 4 5 5 7 8 12 13 12 9 9 6 4 6 8 10 8 11 13 13 18 16 10 10 10 7 1 2 1 1 2 2 6 5 15 25 26 21 19 19 17 14
5 3 3 3 4 5 7 8 8 6 9 9 11 11 7 4 3 7 6 7 7 11 10 16 15 17 12 9 4 3 2 4 3 3 2 2 11 11 15 28 27 23 22 18 15
5 3 2 3 4 7 11 10 12 14 12 12 10 11 10 9 4 4 6 6 7 9 11 13 17 15 11 9 5 4 3 1 2 2 4 1 6 14 14 26 28 26 23 21 18
5 2 1 1 5 11 13 15 18 17 12 6 9 11 8 11 3 2 6 6 7 8 11 12 12 14 12 10 8 8 6 2 3 5 3 2 2 6 15 20 31 32 27 22 22
4 2 1 3 7 14 15 18 13 10 7 4 4 5 6 8 4 5 9 5 5 8 9 10 8 14 14 12 11 11 6 4 4 4 5 3 2 8 7 14 31 36 34 24 21
3 1 3 5 10 13 15 11 8 3 1 2 3 7 5 4 2 1 7 4 4 7 8 8 12 11 17 15 12 7 5 4 5 8 6 8 4 7 1 15 38 39 38 30 25
2 2 5 9 12 11 9 9 5 1 4 3 4 3 3 3 0 4 5 7 6 4 8 6 9 12 10 13 14 11 8 8 8 9 11 2 8 4 10 4 31 27 33 34 26
1 3 6 12 12 12 9 7 2 2 5 4 4 3 2 1 1 4 5 6 5 7 9 10 14 11 13 11 15 17 15 14 10 6 8 3 6 4 7 10 17 28 35 35 29
2 4 8 14 13 11 8 3 1 3 3 3 3 3 2 1 1 3 4 6 6 6 3 9 14 20 15 20 16 21 20 16 6 6 3 5 4 2 3 4 15 22 30 31 35
3 6 12 15 11 9 10 4 3 3 4 1 1 4 4 3 2 5 5 5 5 7 5 4 6 10 16 16 16 17 18 12 13 7 9 5 3 2 1 1 2 16 28 36 37
5 8 16 15 12 11 6 4 5 7 3 2 2 2 2 2 4 7 4 2 4 7 7 0 4 7 15 14 16 10 13 12 13 4 8 7 2 1 3 4 7 8 26 35 29
6 11 16 16 13 13 5 5 6 7 4 1 2 1 2 3 5 6 2 0 1 5 8 5 6 8 12 19 16 15 14 16 5 10 4 2 4 5 7 5 8 12 12 15 25
6 7 17 17 11 13 7 10 10 5 6 1 1 1 2 3 6 5 2 1 4 3 4 6 8 9 11 12 15 14 15 17 12 2 1 3 6 10 14 2 3 24 18 11 18
8 13 21 19 10 12 10 9 9 5 5 3 2 2 1 2 2 5 4 3 2 4 2 4 8 12 11 7 10 14 12 13 13 11 6 4 4 6 11 4 2 23 26 22 21
8 7 21 20 16 12 10 9 9 10 6 4 5 5 3 1 1 1 3 4 5 3 5 2 6 12 5 7 10 9 7 16 14 15 11 6 3 9 4 10 12 13 16 18 19
12 12 18 16 15 13 13 12 10 9 6 2 1 4 4 3 3 3 4 4 3 4 3 1 1 1 6 6 4 6 10 10 16 19 9 8 8 10 17 12 13 11 14 14 11
17 15 18 14 20 17 13 11 14 11 7 5 3 4 5 3 2 5 5 5 7 4 5 9 4 5 7 5 5 8 2 10 5 9 8 8 13 12 12 12 13 12 10 8 6
14 19 16 16 16 13 17 14 14 14 12 9 6 3 4 6 5 6 6 8 8 5 3 5 10 12 8 8 3 3 6 5 5 4 8 9 10 12 14 13 11 11 9 7 6
Wind_Direction
348 344 329 321 313 313 319 311 299 254 227 216 217 214 213 210 206 209 210 207 208 216 222 223 317 348 26 167 174 174 166 174 161 160 158 155 113 66 88 94 128 153 155 167 152
357 359 343 326 311 294 300 309 313 295 247 229 216 214 211 210 206 208 209 210 206 212 217 179 31 35 60 158 166 178 171 173 163 160 153 155 129 53 103 117 128 148 157 162 157
18 23 11 355 340 323 310 311 314 300 266 229 218 209 206 205 207 211 206 206 205 207 198 160 115 55 140 160 173 193 173 184 171 169 146 152 142 96 119 100 152 135 141 164 158
33 31 29 28 18 6 355 335 293 260 248 231 209 203 197 195 186 208 204 201 200 204 187 152 130 93 147 143 187 184 174 166 176 158 154 150 156 136 101 142 144 138 134 157 158
33 34 33 34 37 32 21 9 328 287 270 253 219 195 189 191 205 200 198 194 194 196 172 148 139 127 157 153 148 188 190 192 172 161 168 179 160 161 125 146 134 143 136 161 164
28 33 31 31 38 36 33 30 10 332 287 251 207 181 183 182 201 191 193 191 191 191 167 157 160 152 164 172 188 176 181 189 184 202 206 200 196 170 144 160 145 144 139 154 163
23 26 30 39 47 52 45 36 29 24 6 341 164 169 179 184 186 182 182 193 191 190 173 170 162 157 129 124 144 175 153 172 216 217 207 226 199 200 176 173 163 150 145 152 152
19 23 21 38 40 47 48 45 35 45 60 74 118 145 162 177 177 172 175 187 198 199 182 176 179 175 142 141 138 190 180 180 223 225 219 204 207 196 176 179 178 166 157 148 146
10 18 15 27 32 53 49 38 51 75 74 83 94 113 140 168 176 186 171 184 196 200 192 183 185 183 176 158 199 190 172 132 102 195 247 206 181 193 203 191 183 180 172 163 155
359 11 8 22 36 44 50 72 90 97 93 85 85 74 121 172 191 202 200 177 193 195 191 185 191 195 195 203 242 186 136 95 10 225 181 327 253 231 213 195 187 188 183 175 168
349 357 356 11 50 63 104 88 82 92 89 102 103 118 105 118 177 208 203 190 182 184 184 187 193 205 214 209 169 169 117 95 133 27 1 114 280 248 225 204 198 183 194 190 182
341 335 338 5 77 114 110 103 114 114 101 102 84 82 79 73 67 211 201 161 171 184 184 192 206 209 196 203 208 216 209 141 240 282 36 297 249 225 211 179 195 190 191 194 188
335 316 318 61 128 133 126 119 112 103 93 100 101 96 89 81 93 122 154 179 177 193 194 207 210 209 205 206 209 226 247 275 286 258 262 8 213 195 215 232 210 194 191 200 187
331 288 186 143 145 149 144 137 131 116 120 85 101 103 78 82 63 63 150 162 189 197 193 201 218 202 202 209 207 221 222 254 236 213 275 273 263 248 230 248 199 194 191 197 200
335 229 175 155 150 152 162 168 154 137 208 116 111 123 99 83 160 54 175 163 197 215 187 200 201 194 211 214 218 246 218 217 235 275 284 245 254 249 147 192 196 198 195 194 197
329 186 170 156 158 160 165 191 170 214 90 145 156 139 92 55 211 176 164 168 183 192 216 221 194 202 212 217 216 221 223 240 254 268 256 172 221 215 219 162 203 201 195 191 197
270 176 171 162 150 151 148 145 207 304 133 138 151 150 127 44 85 155 167 187 192 201 211 214 216 210 209 209 203 209 211 230 221 214 262 186 213 242 248 220 216 204 192 197 197
224 178 169 163 154 145 139 105 253 125 129 165 194 205 234 294 220 189 190 208 222 217 224 219 191 210 211 204 203 210 229 253 264 233 265 180 232 202 295 249 225 202 210 200 196
216 185 172 165 161 150 141 196 131 142 130 119 227 237 221 242 235 207 219 255 233 216 253 210 222 203 208 200 208 216 235 265 259 250 261 175 180 288 283 264 96 188 181 192 194
205 179 172 169 161 154 141 168 149 157 135 37 309 226 251 283 254 200 203 269 218 209 215 255 246 194 196 204 220 224 229 228 229 238 260 146 206 135 301 191 171 173 202 210 204
202 179 178 174 167 160 186 186 175 185 173 75 31 118 334 307 194 182 164 159 244 232 227 238 252 154 194 209 215 219 224 239 254 261 287 249 107 338 331 197 184 174 187 210 213
200 190 187 180 168 179 186 185 194 205 217 259 81 98 12 24 172 189 202 190 18 232 227 228 235 211 179 205 217 222 230 219 248 283 248 337 79 283 326 204 182 164 154 144 196
206 204 188 185 187 196 198 188 180 176 201 214 251 268 34 357 227 215 214 237 16 47 260 210 225 195 192 200 224 217 230 230 228 235 139 15 107 300 348 62 171 176 182 182 166
204 195 196 198 197 185 201 204 202 208 218 232 250 257 212 301 359 230 240 253 267 309 346 157 253 270 356 10 180 197 224 229 244 260 159 162 203 194 324 205 202 164 176 198 210
208 210 194 215 211 203 195 210 207 203 201 180 318 200 213 236 251 266 271 260 285 270 281 135 331 190 99 135 139 174 191 272 242 240 234 184 237 188 210 192 190 198 209 228 232
215 212 212 214 209 207 212 215 213 215 196 217 196 188 204 223 258 316 269 252 252 281 238 236 217 142 107 90 150 82 261 285 296 233 235 180 183 187 168 168 170 168 168 160 171
225 218 215 220 215 209 225 218 212 211 216 212 210 213 221 223 270 280 242 251 255 237 245 249 224 217 200 183 194 252 192 345 338 215 191 175 199 214 176 181 176 167 150 169 176
Height
3148 3147 3147 3146 3145 3145 3144 3144 3144 3145 3145 3146 3147 3148 3150 3152 3154 3156 3158 3161 3163 3164 3165 3167 3167 3167 3167 3167 3170 3172 3176 3178 3180 3182 3182 3183 3184 3184 3185 3185 3187 3187 3189 3190 3192
3147 3147 3146 3145 3145 3144 3144 3144 3144 3144 3144 3145 3146 3147 3149 3151 3153 3155 3158 3159 3161 3163 3165 3167 3168 3167 3169 3169 3171 3174 3175 3177 3177 3181 3182 3184 3186 3186 3187 3188 3188 3189 3190 3192 3194
3147 3146 3146 3145 3145 3144 3144 3143 3143 3143 3143 3144 3145 3146 3148 3150 3153 3153 3155 3158 3160 3163 3164 3167 3168 3169 3172 3171 3172 3173 3174 3175 3178 3180 3183 3185 3187 3187 3190 3191 3190 3190 3191 3193 3195
3147 3146 3146 3145 3145 3144 3144 3143 3142 3142 3142 3142 3143 3144 3146 3149 3156 3152 3154 3156 3159 3162 3164 3167 3169 3170 3172 3172 3172 3172 3173 3175 3178 3180 3183 3187 3188 3190 3190 3191 3191 3192 3193 3195 3197
3148 3147 3146 3145 3145 3144 3143 3143 3142 3142 3142 3142 3142 3143 3145 3148 3150 3150 3153 3155 3158 3161 3164 3167 3170 3172 3174 3173 3172 3172 3173 3176 3178 3180 3183 3186 3188 3190 3190 3191 3192 3193 3194 3196 3198
3148 3147 3146 3145 3145 3144 3144 3143 3142 3142 3141 3141 3142 3143 3145 3149 3148 3150 3152 3155 3157 3160 3164 3167 3169 3170 3172 3173 3174 3173 3175 3176 3179 3181 3183 3186 3187 3189 3190 3192 3194 3195 3195 3197 3199
3148 3147 3147 3146 3146 3145 3144 3143 3143 3142 3141 3141 3142 3143 3145 3147 3149 3150 3152 3154 3156 3159 3163 3166 3168 3171 3172 3173 3173 3173 3176 3177 3178 3179 3181 3184 3186 3188 3190 3193 3195 3196 3197 3199 3200
3149 3148 3147 3147 3146 3145 3145 3144 3143 3142 3142 3142 3142 3143 3145 3147 3149 3150 3152 3154 3157 3159 3163 3166 3168 3171 3173 3173 3175 3175 3177 3177 3177 3177 3179 3181 3182 3186 3187 3192 3195 3198 3199 3199 3200
3149 3148 3147 3147 3146 3146 3145 3144 3144 3143 3143 3143 3144 3146 3148 3148 3149 3151 3152 3155 3157 3159 3163 3166 3169 3172 3173 3176 3177 3176 3177 3176 3176 3176 3177 3177 3177 3185 3186 3188 3195 3198 3200 3201 3201
3149 3148 3147 3147 3147 3147 3146 3145 3145 3145 3146 3146 3147 3151 3150 3151 3150 3151 3153 3155 3157 3160 3163 3167 3169 3172 3174 3175 3174 3173 3175 3177 3176 3176 3175 3177 3177 3181 3184 3184 3190 3197 3200 3201 3203
3149 3148 3147 3147 3147 3147 3147 3147 3150 3150 3148 3148 3150 3150 3150 3150 3151 3152 3153 3156 3158 3161 3165 3166 3171 3170 3173 3174 3174 3175 3175 3176 3175 3175 3175 3174 3174 3177 3179 3182 3186 3192 3198 3201 3204
3149 3148 3147 3147 3148 3148 3148 3148 3147 3151 3152 3151 3151 3151 3151 3151 3152 3152 3154 3159 3160 3163 3164 3167 3168 3170 3171 3172 3174 3175 3175 3176 3175 3174 3176 3174 3174 3172 3175 3180 3184 3188 3195 3198 3200
3148 3148 3147 3147 3148 3149 3149 3150 3150 3151 3153 3154 3153 3153 3154 3153 3156 3153 3155 3158 3161 3163 3164 3165 3167 3167 3171 3172 3174 3174 3174 3175 3176 3173 3174 3174 3174 3172 3174 3176 3180 3184 3189 3195 3197
3148 3147 3147 3147 3149 3149 3151 3151 3152 3152 3155 3158 3157 3156 3155 3154 3156 3154 3156 3160 3160 3163 3163 3165 3164 3167 3169 3171 3173 3171 3174 3175 3174 3174 3174 3173 3173 3171 3169 3167 3173 3178 3184 3191 3197
3147 3146 3146 3147 3148 3150 3152 3152 3152 3154 3151 3159 3158 3156 3155 3158 3157 3155 3155 3158 3160 3161 3163 3163 3164 3166 3168 3170 3171 3171 3172 3174 3173 3173 3172 3171 3172 3165 3165 3163 3166 3174 3179 3187 3195
3146 3145 3146 3147 3148 3150 3151 3152 3154 3155 3154 3157 3157 3157 3157 3157 3156 3155 3155 3157 3158 3160 3161 3162 3162 3165 3166 3167 3169 3171 3172 3172 3171 3170 3165 3166 3169 3164 3164 3164 3167 3172 3177 3184 3191
3145 3145 3145 3147 3149 3150 3151 3153 3156 3151 3157 3158 3157 3157 3157 3157 3157 3156 3156 3157 3158 3159 3158 3160 3161 3162 3163 3166 3167 3168 3168 3162 3161 3163 3159 3164 3167 3164 3164 3164 3166 3170 3172 3180 3188
3144 3144 3145 3147 3149 3150 3152 3155 3155 3155 3155 3155 3156 3156 3157 3157 3156 3156 3157 3156 3157 3157 3156 3155 3157 3158 3159 3162 3164 3165 3163 3158 3157 3153 3159 3162 3161 3162 3161 3161 3163 3165 3170 3176 3183
3143 3144 3145 3147 3149 3150 3152 3154 3154 3155 3156 3156 3155 3155 3155 3156 3156 3155 3155 3154 3155 3156 3156 3154 3154 3155 3158 3160 3163 3162 3164 3161 3160 3156 3156 3152 3160 3159 3161 3160 3160 3161 3165 3170 3178
3142 3143 3145 3147 3149 3150 3153 3153 3154 3154 3154 3155 3154 3154 3154 3154 3154 3154 3154 3154 3154 3154 3155 3155 3153 3154 3157 3159 3160 3159 3162 3162 3159 3156 3150 3149 3156 3159 3157 3158 3160 3164 3165 3169 3176
3142 3144 3145 3147 3149 3151 3153 3153 3153 3154 3154 3156 3154 3154 3154 3153 3152 3153 3154 3154 3153 3153 3153 3155 3154 3155 3156 3157 3156 3160 3160 3159 3158 3153 3150 3148 3155 3158 3158 3156 3158 3162 3165 3167 3169
3141 3146 3144 3147 3151 3149 3152 3151 3152 3153 3153 3155 3154 3154 3153 3153 3152 3153 3153 3154 3152 3152 3153 3153 3151 3148 3148 3153 3154 3156 3156 3156 3154 3154 3152 3154 3157 3159 3158 3157 3157 3161 3164 3167 3167
3139 3141 3143 3146 3150 3151 3150 3151 3151 3152 3153 3154 3154 3154 3153 3153 3153 3153 3153 3153 3152 3153 3152 3151 3149 3146 3149 3153 3152 3154 3155 3153 3157 3156 3156 3159 3159 3159 3158 3159 3158 3159 3162 3166 3167
3138 3141 3142 3143 3144 3147 3149 3150 3151 3151 3152 3152 3152 3152 3153 3153 3153 3153 3153 3153 3152 3152 3151 3150 3148 3145 3146 3144 3148 3152 3154 3156 3155 3154 3155 3158 3160 3160 3161 3160 3158 3160 3163 3165 3168
3136 3138 3138 3141 3143 3145 3146 3148 3150 3151 3151 3151 3151 3151 3152 3152 3152 3152 3152 3152 3152 3150 3151 3152 3150 3148 3150 3151 3150 3151 3153 3154 3154 3153 3154 3156 3160 3160 3157 3158 3160 3161 3162 3162 3164
3132 3133 3135 3137 3138 3141 3144 3146 3147 3149 3149 3150 3150 3150 3151 3152 3152 3151 3151 3151 3150 3151 3151 3150 3151 3150 3149 3150 3150 3153 3149 3153 3154 3153 3154 3155 3155 3155 3157 3158 3159 3160 3160 3160 3162
3126 3128 3131 3134 3136 3139 3141 3143 3144 3146 3147 3147 3149 3149 3150 3150 3150 3149 3149 3149 3149 3149 3149 3149 3148 3149 3143 3150 3152 3152 3153 3153 3154 3153 3153 3154 3154 3159 3157 3158 3158 3159 3159 3160 3161